"2010-12-08 00:00:00",403501,6.061,69.44,7.086,1.287,8.65,102.272,5.098,6.205,32.25,0,109.9,13.44,5.87,31.4
"2010-12-08 00:00:30",403502,6.352,73.03,8.55,1.068,9.83,102.272,5.098,6.211,32.22,0,109.9,13.43,5.87,35.0
"2010-12-08 00:01:00",403503,5.446,70.37,8.02,1.287,8.37,102.272,5.098,6.192,32.16,0,109.9,13.44,5.87,32.4
"2010-12-08 00:01:30",403504,5.872,71.65,7.192,1.236,9.06,102.2717,5.097,6.176,32.19,0,109.8,13.43,5.87,33.7
"2010-12-08 00:02:00",403505,6.097,61.99,8.92,0.922,6.632,102.2683,5.088,6,31.78,0,109.8,13.43,5.86,24.0
"2010-12-08 00:02:30",403506,7.337,68.25,7.332,1.149,9.06,102.2629,5.075,6.201,31.53,0,109.8,13.44,5.84,30.2
"2010-12-08 00:03:00",403507,8.07,68,8.35,1.063,9.81,102.2587,5.064,6.201,31.55,0,109.8,13.43,5.83,30.0
"2010-12-08 00:03:30",403508,8.05,69.71,4.716,0.78,10.94,102.2612,5.07,6.246,31.6,0,109.8,13.43,5.84,31.7
"2010-12-08 00:04:00",403509,7.078,67.63,6.666,1.19,9.18,102.2615,5.071,6.129,31.5,0,109.8,13.44,5.84,29.6
"2010-12-08 00:04:30",403510,6.203,67.41,4.644,1.295,8.3,102.2629,5.075,6.16,31.72,0,109.8,13.44,5.84,29.4
"2010-12-08 00:05:00",403511,5.917,59.03,3.59,0.772,6.126,102.2573,5.06,6.032,31.36,0,109.8,13.44,5.83,21.0
"2010-12-08 00:05:30",403512,6.632,65.48,8.43,1.304,8.29,102.2491,5.039,6.121,31.4,0,109.8,13.44,5.81,27.5
"2010-12-08 00:06:00",403513,7.636,66.92,6.225,0.999,10.15,102.2395,5.015,6.17,31.5,0,109.8,13.44,5.78,28.9
"2010-12-08 00:06:30",403514,7.806,68.47,5.914,0.652,10.81,102.2398,5.015,6.228,31.56,0,109.8,13.44,5.79,30.5
"2010-12-08 00:07:00",403515,7.337,61.98,7.194,1.201,9.06,102.2406,5.018,6.187,31.35,0,109.8,13.44,5.79,24.0
"2010-12-08 00:07:30",403516,6.697,68.97,6.924,1.204,8.33,102.2424,5.022,5.994,31.23,0,109.8,13.44,5.79,31.0
"2010-12-08 00:08:00",403517,6.227,67.5,9.14,1.143,7.922,102.2447,5.028,6.066,31.45,0,109.8,13.44,5.80,29.5
"2010-12-08 00:08:30",403518,6.584,68,5.908,1.279,9.25,102.2424,5.022,6.102,31.59,0,109.8,13.45,5.79,30.0
"2010-12-08 00:09:00",403519,6.544,69.59,6.243,1.233,9.59,102.2335,4.999,6.114,31.71,0,109.8,13.45,5.77,31.6
"2010-12-08 00:09:30",403520,5.959,69.09,6.468,1.326,9.57,102.2434,5.025,6.139,31.8,0,109.8,13.45,5.79,31.1
"2010-12-08 00:10:00",403521,5.795,67.85,6.244,1.164,9.08,102.2534,5.05,6.077,31.65,0,109.8,13.45,5.82,29.8
"2010-12-08 00:10:30",403522,4.764,61.04,4.351,1.054,6.501,102.2494,5.04,5.946,31.56,0,109.8,13.45,5.81,23.0
"2010-12-08 00:11:00",403523,5.557,65.82,6.704,1.189,8.02,102.254,5.052,5.965,31.55,0,109.8,13.45,5.82,27.8
"2010-12-08 00:11:30",403524,5.938,68.45,7.14,1.323,8.46,102.2629,5.075,6.062,31.69,0,109.8,13.45,5.84,30.4
"2010-12-08 00:12:00",403525,7.168,65.05,5.551,1.521,9.55,102.2626,5.074,6.168,31.4,0,109.8,13.45,5.84,27.1
"2010-12-08 00:12:30",403526,7.375,70.85,5.998,1.012,10.49,102.2632,5.075,6.197,31.24,0,109.8,13.45,5.85,32.8
"2010-12-08 00:13:00",403527,7.371,68.9,8.13,1.132,9.98,102.2491,5.039,6.14,31.2,0,109.8,13.45,5.81,30.9
"2010-12-08 00:13:30",403528,5.433,68.55,7.634,1.245,7.835,102.2333,4.999,6.056,31.04,0,109.8,13.45,5.77,30.6
"2010-12-08 00:14:00",403529,5.351,56.66,7.51,1.021,6.732,102.2353,5.004,5.859,30.68,0,109.8,13.45,5.77,18.7
"2010-12-08 00:14:30",403530,5.462,64.44,9.52,1.167,8.26,102.2353,5.004,6.016,30.35,0,109.8,13.45,5.77,26.4
"2010-12-08 00:15:00",403531,5.949,70.06,6.995,1.218,9.26,102.2359,5.006,6.092,30.97,0,109.8,13.46,5.78,32.1
"2010-12-08 00:15:30",403532,6.017,70.5,8.57,1.203,9.59,102.2295,4.989,6.061,31.32,0,109.8,13.46,5.76,32.5
"2010-12-08 00:16:00",403533,6.806,64.86,6.169,1.02,9.69,102.208,4.934,6.041,30.99,0,109.8,13.46,5.70,26.9
"2010-12-08 00:16:30",403534,5.964,67.01,6.038,1.074,8.17,102.2057,4.929,5.957,30.77,0,109.8,13.45,5.70,29.0
"2010-12-08 00:17:00",403535,4.784,58.68,3.784,0.293,5.738,102.2049,4.926,5.84,30.78,0,109.8,13.48,5.70,20.7
"2010-12-08 00:17:30",403536,6.293,65.13,7.45,1.241,9.56,102.2049,4.926,6.036,31.02,0,109.8,13.45,5.70,27.1
"2010-12-08 00:18:00",403537,5.968,67.5,6.813,1.244,9.6,102.2049,4.926,6.047,30.98,0,109.8,13.45,5.70,29.5
"2010-12-08 00:18:30",403538,6.605,75.95,5.068,0.822,10.83,102.2049,4.926,6.058,30.84,0,109.8,13.45,5.70,37.9
"2010-12-08 00:19:00",403539,6.37,72.49,6.521,1.229,8.73,102.2049,4.926,5.997,30.6,0,109.8,13.45,5.70,34.5
"2010-12-08 00:19:30",403540,6.123,71.25,5.87,1.165,8.04,102.2049,4.926,5.872,30.54,0,109.8,13.45,5.70,33.2
"2010-12-08 00:20:00",403541,4.952,70.16,5.669,0.73,6.914,102.2049,4.926,6.039,30.88,0,109.7,13.45,5.70,32.2
"2010-12-08 00:20:30",403542,6.056,76.58,6.039,1.197,9.55,102.2049,4.926,6.047,31.13,0,109.8,13.45,5.70,38.6
"2010-12-08 00:21:00",403543,5.735,78.34,6.232,1.085,9.78,102.2049,4.926,6.013,31.13,0,109.8,13.45,5.70,40.3
"2010-12-08 00:21:30",403544,4.741,74.47,5.997,1.171,7.421,102.2049,4.926,5.874,31.03,0,109.8,13.45,5.70,36.5
"2010-12-08 00:22:00",403545,5.633,80.7,6.726,1.207,9.19,102.2049,4.926,5.99,31.32,0,109.8,13.46,5.70,42.7
"2010-12-08 00:22:30",403546,4.571,75.37,5.874,1.209,6.533,102.2046,4.926,5.807,31.2,0,109.8,13.46,5.69,37.4
"2010-12-08 00:23:00",403547,4.628,78.43,6.898,1.171,6.94,102.1992,4.912,5.879,31.4,0,109.8,13.46,5.68,40.4
"2010-12-08 00:23:30",403548,5.402,78.83,5.914,1.314,8.12,102.1896,4.887,5.931,31.39,0,109.8,13.46,5.66,40.8
"2010-12-08 00:24:00",403549,5.513,78.91,6.359,1.287,8.94,102.1803,4.864,5.995,31.54,0,109.8,13.46,5.63,40.9
"2010-12-08 00:24:30",403550,5.018,73.23,7.432,1.283,8.37,102.1744,4.848,6.016,31.51,0,109.8,13.46,5.62,35.2
"2010-12-08 00:25:00",403551,5.798,76.57,5.42,1.076,9.2,102.1724,4.843,5.992,31.46,0,109.8,13.46,5.61,38.6
"2010-12-08 00:25:30",403552,4.264,73.87,5.93,0.758,6.527,102.171,4.84,5.854,31.33,0,109.8,13.46,5.61,35.9
"2010-12-08 00:26:00",403553,4.598,81,5.091,1.394,7.336,102.171,4.84,5.752,31.29,0,109.8,13.46,5.61,43.0
"2010-12-08 00:26:30",403554,5.984,73.49,7.455,1.152,8.29,102.171,4.84,5.812,31.16,0,109.9,13.46,5.61,35.5
"2010-12-08 00:27:00",403555,5.131,80.7,10.32,1.254,8.9,102.171,4.84,5.973,31.56,0,109.8,13.46,5.61,42.7
"2010-12-08 00:27:30",403556,5.669,78.01,10.09,1.039,9.81,102.171,4.84,5.944,31.55,0,109.8,13.47,5.61,40.0
"2010-12-08 00:28:00",403557,5.049,69.39,6.406,1.208,8.55,102.171,4.84,5.957,31.14,0,109.8,13.47,5.61,31.4
"2010-12-08 00:28:30",403558,4.241,81.3,6.894,1.254,8.18,102.171,4.84,5.886,31.46,0,109.8,13.47,5.61,43.3
"2010-12-08 00:29:00",403559,3.043,70.16,3.406,0.147,5.171,102.171,4.84,5.706,31.37,0,109.8,13.5,5.61,32.2
"2010-12-08 00:29:30",403560,3.198,68.92,4.425,0.878,5.777,102.1707,4.839,5.786,31.29,0,109.8,13.47,5.61,30.9
"2010-12-08 00:30:00",403561,4.354,75.43,6.67,1.295,8.88,102.171,4.84,5.944,31.37,0,109.8,13.47,5.61,37.4
"2010-12-08 00:30:30",403562,4.989,77.88,7.336,0.942,9.75,102.171,4.84,5.874,31.36,0,109.8,13.47,5.61,39.9
"2010-12-08 00:31:00",403563,4.799,76.6,6.651,1.172,9.27,102.171,4.84,5.964,31.25,0,109.8,13.47,5.61,38.6
"2010-12-08 00:31:30",403564,4.659,69.75,6.776,1.243,7.936,102.171,4.84,5.824,30.93,0,109.8,13.47,5.61,31.8
"2010-12-08 00:32:00",403565,3.946,61.67,8.54,0.217,5.541,102.1712,4.841,5.818,30.17,0,109.8,13.51,5.61,23.7
"2010-12-08 00:32:30",403566,4.792,67.09,8.59,1.15,6.446,102.1712,4.841,5.701,29.94,0,109.8,13.47,5.61,29.1
"2010-12-08 00:33:00",403567,5.538,68.79,7.663,1.311,8.85,102.1715,4.841,5.942,30.19,0,109.8,13.47,5.61,30.8
"2010-12-08 00:33:30",403568,5.447,71.08,7.803,1.354,9.37,102.1715,4.841,5.945,29.51,0,109.8,13.47,5.61,33.1
"2010-12-08 00:34:00",403569,6.301,65.72,5.507,1.079,9.55,102.173,4.845,5.962,29.28,0,109.8,13.47,5.61,27.7
"2010-12-08 00:34:30",403570,6.143,66.91,5.638,1.234,9.25,102.1744,4.849,5.972,29.28,0,109.8,13.46,5.62,28.9
"2010-12-08 00:35:00",403571,5.217,62.55,6.012,1.368,6.64,102.177,4.855,5.744,28.7,0,109.8,13.46,5.62,24.5
"2010-12-08 00:35:30",403572,5.108,63.02,5.029,1.137,7.3,102.1796,4.862,5.889,28.75,0,109.8,13.46,5.63,25.0
"2010-12-08 00:36:00",403573,6.222,63.5,8.4,1.229,9.01,102.179,4.86,5.93,28.68,0,109.8,13.46,5.63,25.5
"2010-12-08 00:36:30",403574,6.442,67,5.989,1.094,9.85,102.1822,4.868,6.025,28.69,0,109.8,13.46,5.64,29.0
"2010-12-08 00:37:00",403575,6.819,65.42,6.318,1.235,10.01,102.1848,4.875,6.04,28.74,0,109.8,13.46,5.64,27.4
"2010-12-08 00:37:30",403576,5.661,69.28,5.786,1.307,8.51,102.1831,4.871,5.955,28.75,0,109.8,13.46,5.64,31.3
"2010-12-08 00:38:00",403577,5.055,60.12,5.157,0.658,6.666,102.184,4.873,5.906,28.64,0,109.8,13.47,5.64,22.1
"2010-12-08 00:38:30",403578,5.449,58.26,5.853,1.431,7.262,102.1863,4.879,5.793,28.54,0,109.8,13.47,5.65,20.3
"2010-12-08 00:39:00",403579,6.709,59.42,6.304,1.4,8.9,102.1845,4.874,5.999,28.54,0,109.8,13.47,5.64,21.4
"2010-12-08 00:39:30",403580,6.614,68.06,6.922,1.131,10.13,102.1835,4.872,5.99,28.37,0,109.8,13.47,5.64,30.1
"2010-12-08 00:40:00",403581,6.214,72.68,5.74,1.022,9.9,102.1744,4.849,5.986,28.68,0,109.8,13.47,5.62,34.7
"2010-12-08 00:40:30",403582,5.892,62.56,8.44,1.222,7.374,102.1685,4.833,5.783,28.01,0,109.8,13.47,5.60,24.6
"2010-12-08 00:41:00",403583,6.243,66.17,6.644,1.193,8.53,102.1708,4.839,5.92,28.11,0,109.8,13.47,5.61,28.2
"2010-12-08 00:41:30",403584,5.688,60.57,6.561,1.035,6.833,102.1623,4.818,5.747,27.85,0,109.8,13.47,5.59,22.6
"2010-12-08 00:42:00",403585,6.086,70.07,8.44,1.251,8.77,102.1618,4.816,5.964,28.32,0,109.8,13.47,5.59,32.1
"2010-12-08 00:42:30",403586,6.029,77.84,6.787,1.003,9.66,102.1584,4.808,5.921,28.93,0,109.8,13.47,5.58,39.8
"2010-12-08 00:43:00",403587,6.564,76.31,5.433,1.2,9.93,102.1575,4.805,5.978,28.18,0,109.8,13.47,5.57,38.3
"2010-12-08 00:43:30",403588,5.109,63.47,5.345,0.815,6.313,102.1593,4.81,5.728,27.62,0,109.8,13.47,5.58,25.5
"2010-12-08 00:44:00",403589,6.074,65.85,7.261,1.247,8.54,102.1598,4.811,5.905,27.8,0,109.8,13.47,5.58,27.8
"2010-12-08 00:44:30",403590,4.984,58.31,5.307,1.363,6.768,102.1622,4.817,5.717,27.84,0,109.8,13.47,5.59,20.3
"2010-12-08 00:45:00",403591,6.308,70.28,6.057,1.382,9.65,102.1625,4.818,5.939,28.25,0,109.8,13.48,5.59,32.3
"2010-12-08 00:45:30",403592,6.598,70.08,7.025,1.364,9.42,102.1633,4.82,5.898,28.25,0,109.8,13.48,5.59,32.1
"2010-12-08 00:46:00",403593,6.432,69.6,7.558,1.256,8.93,102.163,4.819,5.905,28.24,0,109.8,13.48,5.59,31.6
"2010-12-08 00:46:30",403594,5.686,66.21,6.798,1.346,7.875,102.1622,4.817,5.819,28.22,0,109.8,13.48,5.59,28.2
"2010-12-08 00:47:00",403595,5.204,65.7,5.993,1.089,6.757,102.1627,4.819,5.765,28.18,0,109.8,13.47,5.59,27.7
"2010-12-08 00:47:30",403596,5.605,66.8,6.804,1.198,7.654,102.1633,4.82,5.816,28.38,0,109.8,13.48,5.59,28.8
"2010-12-08 00:48:00",403597,5.556,68.95,6.046,1.223,8.24,102.1645,4.823,5.903,28.44,0,109.8,13.48,5.59,30.9
"2010-12-08 00:48:30",403598,6.203,71.1,6.633,1.098,9.62,102.1642,4.822,5.926,28.4,0,109.8,13.48,5.59,33.1
"2010-12-08 00:49:00",403599,6.514,72.77,3.729,0.537,10.54,102.1639,4.822,5.891,28.38,0,109.7,13.48,5.59,34.8
"2010-12-08 00:49:30",403600,4.673,61.08,3.694,0.869,6.093,102.1625,4.818,5.738,28.3,0,109.8,13.47,5.59,23.1
"2010-12-08 00:50:00",403601,6.424,67.76,5.722,1.278,9.15,102.1588,4.809,5.818,28.26,0,109.8,13.48,5.58,29.8
"2010-12-08 00:50:30",403602,4.926,64.74,4.758,0.95,6.551,102.1555,4.8,5.73,27.96,0,109.8,13.48,5.57,26.7
"2010-12-08 00:51:00",403603,6.628,77.12,4.76,0.862,10.21,102.1461,4.776,5.95,28.28,0,109.8,13.47,5.55,39.1
"2010-12-08 00:51:30",403604,5.984,77.83,6.924,1.208,9.55,102.1368,4.752,5.912,28.31,0,109.8,13.48,5.52,39.8
"2010-12-08 00:52:00",403605,5.619,77.01,6.508,1.222,9,102.132,4.74,5.869,28.38,0,109.7,13.48,5.51,39.0
"2010-12-08 00:52:30",403606,5.016,69.72,6.644,1.319,7.104,102.1357,4.75,5.646,28.23,0,109.8,13.47,5.52,31.7
"2010-12-08 00:53:00",403607,4.676,66.91,8.77,1.073,7.468,102.1334,4.744,5.843,28.45,0,109.7,13.47,5.51,28.9
"2010-12-08 00:53:30",403608,4.992,64.28,5.231,1.194,7.57,102.1331,4.743,5.698,28.42,0,109.8,13.47,5.51,26.3
"2010-12-08 00:54:00",403609,5.646,73.39,7.819,1.043,9.21,102.1346,4.747,5.859,28.67,0,109.7,13.47,5.52,35.4
"2010-12-08 00:54:30",403610,5.668,75.33,7.169,1.088,9.54,102.1428,4.768,5.854,28.45,0,109.8,13.48,5.54,37.3
"2010-12-08 00:55:00",403611,5.493,78.63,6.77,1.163,8.8,102.153,4.794,5.827,28.28,0,109.8,13.48,5.56,40.6
"2010-12-08 00:55:30",403612,4.665,78.76,5.357,1.234,7.445,102.1513,4.79,5.724,28.08,0,109.8,13.48,5.56,40.8
"2010-12-08 00:56:00",403613,4.511,77.92,5.278,1.172,7.073,102.1397,4.76,5.759,28.1,0,109.7,13.48,5.53,39.9
"2010-12-08 00:56:30",403614,4.085,74.3,5.61,1.062,6.677,102.1431,4.769,5.761,27.93,0,109.8,13.49,5.54,36.3
"2010-12-08 00:57:00",403615,5.257,77.63,7.591,1.253,8.37,102.1525,4.793,5.755,28.06,0,109.8,13.49,5.56,39.6
"2010-12-08 00:57:30",403616,5.769,78.65,5.896,1.171,9.24,102.1533,4.795,5.825,28.23,0,109.8,13.49,5.56,40.7
"2010-12-08 00:58:00",403617,4.957,79.92,7.326,1.354,8.78,102.1547,4.798,5.917,28.17,0,109.8,13.49,5.57,41.9
"2010-12-08 00:58:30",403618,5.129,83.9,7.955,1.172,8.76,102.1553,4.8,5.814,28.16,0,109.8,13.49,5.57,45.9
"2010-12-08 00:59:00",403619,4.082,71.99,4.696,0.579,5.401,102.1578,4.806,5.635,27.86,0,109.7,13.49,5.58,34.0
"2010-12-08 00:59:30",403620,4.827,71.5,6.787,1.188,7.183,102.1502,4.787,5.785,28.37,0,109.7,13.49,5.56,33.5
"2010-12-08 01:00:00",403621,4.513,73.84,5.445,1.173,7.172,102.1378,4.755,5.768,28.74,0,109.7,13.49,5.52,35.8
"2010-12-08 01:00:30",403622,5.516,79.54,6.238,1.015,9.55,102.1378,4.755,5.856,27.85,0,109.8,13.49,5.52,41.5
"2010-12-08 01:01:00",403623,5.859,76.57,7.53,1.225,9.47,102.1378,4.755,5.882,27.64,0,109.8,13.49,5.52,38.6
"2010-12-08 01:01:30",403624,4.466,78.61,6.391,1.337,7.375,102.1378,4.755,5.845,27.66,0,109.7,13.49,5.52,40.6
"2010-12-08 01:02:00",403625,4.854,80.3,7.881,1.3,7.31,102.1378,4.755,5.699,27.42,0,109.7,13.49,5.52,42.3
"2010-12-08 01:02:30",403626,4.195,80.3,5.022,1.218,6.564,102.1378,4.755,5.666,27.43,0,109.7,13.49,5.52,42.3
"2010-12-08 01:03:00",403627,4.64,89.4,6.465,1.221,8.81,102.1378,4.755,5.771,27.79,0,109.8,13.49,5.52,51.4
"2010-12-08 01:03:30",403628,4.89,94.3,5.428,1.335,8.87,102.1352,4.748,5.868,28.26,0,109.8,13.49,5.52,56.3
"2010-12-08 01:04:00",403629,4.763,89.3,11.28,1.295,8.84,102.1219,4.715,5.88,28.13,0,109.8,13.49,5.48,51.3
"2010-12-08 01:04:30",403630,5.212,94.5,8.3,1.236,8.71,102.1188,4.707,5.802,28.08,0,109.7,13.49,5.48,56.5
"2010-12-08 01:05:00",403631,3.91,87,7.635,0.956,6.185,102.1174,4.703,5.724,28.06,0,109.7,13.49,5.47,49.0
"2010-12-08 01:05:30",403632,3.887,82.5,9.25,1.304,6.701,102.1174,4.703,5.657,28.02,0,109.8,13.49,5.47,44.5
"2010-12-08 01:06:00",403633,3.274,85,7.877,0.815,6.468,102.1154,4.698,5.704,28.2,0,109.8,13.49,5.47,47.0
"2010-12-08 01:06:30",403634,3.732,103.3,9.52,1.213,7.639,102.1112,4.687,5.731,28.48,0,109.8,13.49,5.46,65.3
"2010-12-08 01:07:00",403635,3.666,104.2,7.531,1.227,9.09,102.1052,4.672,5.827,28.86,0,109.8,13.49,5.44,66.2
"2010-12-08 01:07:30",403636,3.795,102.3,8.69,1.193,9.14,102.1038,4.668,5.789,28.96,0,109.8,13.49,5.44,64.3
"2010-12-08 01:08:00",403637,4.148,95.7,7.79,1.312,8.37,102.1038,4.668,5.74,28.71,0,109.8,13.49,5.44,57.7
"2010-12-08 01:08:30",403638,3.057,83.2,5.268,0.202,4.862,102.1038,4.668,5.525,28.39,0,109.8,13.52,5.44,45.2
"2010-12-08 01:09:00",403639,3.648,100,8.45,1.124,7.009,102.1038,4.668,5.676,28.68,0,109.8,13.49,5.44,62.0
"2010-12-08 01:09:30",403640,3.484,77.56,12.22,1.164,6.666,102.1038,4.668,5.644,28.75,0,109.8,13.49,5.44,39.6
"2010-12-08 01:10:00",403641,4.404,78.74,7.706,1.28,8.18,102.1038,4.668,5.642,27.88,0,109.8,13.49,5.44,40.7
"2010-12-08 01:10:30",403642,4.969,88.9,6.922,1.14,9.96,102.1134,4.693,5.821,27.86,0,109.8,13.49,5.46,50.9
"2010-12-08 01:11:00",403643,5.181,82.7,8.28,0.95,9.21,102.1163,4.7,5.759,27.87,0,109.8,13.49,5.47,44.7
"2010-12-08 01:11:30",403644,3.103,66.63,3.958,0.695,5.336,102.1174,4.703,5.585,27.59,0,109.8,13.49,5.47,28.6
"2010-12-08 01:12:00",403645,2.966,73.23,4.521,0.333,5.057,102.1194,4.708,5.556,27.61,0,109.8,13.53,5.48,35.2
"2010-12-08 01:12:30",403646,4.298,79.62,8.46,1.097,7.487,102.1222,4.715,5.695,27.71,0,109.7,13.5,5.48,41.6
"2010-12-08 01:13:00",403647,4.592,78.7,8.12,1.271,8.2,102.127,4.728,5.833,27.74,0,109.8,13.5,5.50,40.7
"2010-12-08 01:13:30",403648,5.507,86.7,11.67,1.166,10.14,102.1352,4.748,5.822,27.86,0,109.8,13.5,5.52,48.7
"2010-12-08 01:14:00",403649,5.259,89.1,4.548,1.21,9.53,102.1282,4.73,5.827,27.88,0,109.8,13.5,5.50,51.1
"2010-12-08 01:14:30",403650,4.449,77.84,6.697,1.147,8.06,102.1248,4.722,5.767,27.48,0,109.8,13.5,5.49,39.8
"2010-12-08 01:15:00",403651,2.986,78.84,6.049,0.226,5.093,102.1208,4.712,5.58,27.38,0,109.8,13.53,5.48,40.8
"2010-12-08 01:15:30",403652,4.778,86.6,10.6,1.33,7.129,102.1171,4.702,5.73,27.48,0,109.8,13.5,5.47,48.6
"2010-12-08 01:16:00",403653,4.815,81.6,9.16,1.187,8.43,102.1163,4.7,5.734,27.57,0,109.8,13.5,5.47,43.6
"2010-12-08 01:16:30",403654,4.693,81.6,5.501,1.198,8.3,102.1087,4.681,5.751,27.28,0,109.8,13.5,5.45,43.6
"2010-12-08 01:17:00",403655,4.93,84.1,6.134,1.237,8.92,102.1109,4.686,5.815,27.18,0,109.8,13.5,5.45,46.1
"2010-12-08 01:17:30",403656,5.062,88.1,5.97,1.047,8.46,102.1121,4.689,5.742,27.29,0,109.8,13.5,5.46,50.1
"2010-12-08 01:18:00",403657,3.012,77.97,1.842,0.127,5.168,102.1119,4.689,5.62,27.25,0,109.8,13.53,5.46,40.0
"2010-12-08 01:18:30",403658,3.762,76.32,4.281,1.018,5.695,102.1139,4.694,5.59,27.17,0,109.8,13.5,5.46,38.3
"2010-12-08 01:19:00",403659,4.737,78.5,7.5,1.256,8.29,102.1206,4.711,5.79,27.23,0,109.8,13.5,5.48,40.5
"2010-12-08 01:19:30",403660,5.111,86,4.852,1.148,9.59,102.1175,4.703,5.812,27.24,0,109.8,13.5,5.47,48.0
"2010-12-08 01:20:00",403661,4.705,86.3,7.551,1.159,8.65,102.117,4.702,5.842,27.44,0,109.8,13.5,5.47,48.3
"2010-12-08 01:20:30",403662,4.845,86.4,6.35,1.203,8.34,102.1207,4.711,5.757,27.63,0,109.8,13.5,5.48,48.4
"2010-12-08 01:21:00",403663,3.957,86,9.41,1.127,6.788,102.1267,4.727,5.736,27.44,0,109.8,13.5,5.50,48.0
"2010-12-08 01:21:30",403664,3.539,86.4,2.01,0.238,5.189,102.1238,4.719,5.687,27.14,0,109.8,13.54,5.49,48.4
"2010-12-08 01:22:00",403665,3.942,81.7,7.878,1.202,7.298,102.1278,4.73,5.636,27.13,0,109.8,13.5,5.50,43.7
"2010-12-08 01:22:30",403666,4.791,90.8,8.9,1.246,8.97,102.1287,4.732,5.848,27.39,0,109.7,13.5,5.50,52.8
"2010-12-08 01:23:00",403667,4.828,96.1,8.02,1.087,9.11,102.1281,4.73,5.762,27.17,0,109.8,13.5,5.50,58.1
"2010-12-08 01:23:30",403668,4.368,93.4,6.466,1.186,8.64,102.1245,4.721,5.795,27.18,0,109.7,13.5,5.49,55.4
"2010-12-08 01:24:00",403669,3.804,89.2,5.362,0.967,6.068,102.1177,4.704,5.605,26.86,0,109.8,13.5,5.47,51.2
"2010-12-08 01:24:30",403670,2.74,85.2,3.175,0.24,5.081,102.1157,4.699,5.644,26.76,0,109.8,13.54,5.47,47.2
"2010-12-08 01:25:00",403671,3.989,87,7.506,1.334,6.929,102.118,4.704,5.695,26.87,0,109.8,13.5,5.47,49.0
"2010-12-08 01:25:30",403672,3.736,85.6,6.078,1.217,7.332,102.1171,4.702,5.707,26.79,0,109.7,13.5,5.47,47.6
"2010-12-08 01:26:00",403673,4.829,94.3,6.183,1.157,9.53,102.1172,4.702,5.806,26.85,0,109.8,13.5,5.47,56.3
"2010-12-08 01:26:30",403674,5.062,96.3,6.089,0.898,9.55,102.111,4.687,5.727,26.7,0,109.8,13.5,5.46,58.3
"2010-12-08 01:27:00",403675,4.132,90.1,7.916,1.293,8.17,102.1013,4.662,5.801,26.75,0,109.8,13.5,5.43,52.1
"2010-12-08 01:27:30",403676,3.351,85.2,6.739,0.98,5.424,102.0886,4.629,5.52,26.47,0,109.8,13.5,5.40,47.2
"2010-12-08 01:28:00",403677,3.572,87.7,6.135,1.235,6.055,102.084,4.618,5.54,26.49,0,109.8,13.5,5.39,49.7
"2010-12-08 01:28:30",403678,3.252,84.5,4.564,0.829,6.086,102.0869,4.625,5.63,26.52,0,109.8,13.5,5.39,46.5
"2010-12-08 01:29:00",403679,5.586,91,4.994,0.52,10.47,102.0901,4.633,5.82,26.89,0,109.8,13.5,5.40,53.0
"2010-12-08 01:29:30",403680,4.494,89.3,6.183,1.269,9.08,102.0904,4.634,5.745,26.7,0,109.8,13.5,5.40,51.3
"2010-12-08 01:30:00",403681,4.611,89,7.53,1.166,8.86,102.0907,4.635,5.689,26.69,0,109.8,13.5,5.40,51.0
"2010-12-08 01:30:30",403682,3.203,82.3,5.025,0.826,5.488,102.0901,4.633,5.557,26.5,0,109.8,13.5,5.40,44.3
"2010-12-08 01:31:00",403683,3.347,83.5,5.605,1.128,6.205,102.0907,4.635,5.564,26.55,0,109.8,13.5,5.40,45.5
"2010-12-08 01:31:30",403684,3.18,75.69,5.544,0.97,6.22,102.0927,4.64,5.614,26.86,0,109.8,13.51,5.41,37.7
"2010-12-08 01:32:00",403685,4.25,77.56,6.839,1.281,7.802,102.0921,4.638,5.557,27,0,109.7,13.51,5.41,39.6
"2010-12-08 01:32:30",403686,4.559,85.6,6.159,1.086,9.8,102.095,4.646,5.726,27.14,0,109.8,13.51,5.41,47.6
"2010-12-08 01:33:00",403687,3.992,86.6,6.639,1.306,8.63,102.0927,4.64,5.715,26.8,0,109.8,13.51,5.41,48.6
"2010-12-08 01:33:30",403688,3.354,82.2,5.516,1.143,6.215,102.0947,4.645,5.499,26.64,0,109.8,13.51,5.41,44.2
"2010-12-08 01:34:00",403689,3.868,85.9,7.494,1.25,7.118,102.0956,4.647,5.62,26.76,0,109.7,13.51,5.42,47.9
"2010-12-08 01:34:30",403690,2.671,82.1,2.79,0.12,4.997,102.0956,4.647,5.471,26.31,0,109.8,13.54,5.42,44.1
"2010-12-08 01:35:00",403691,3.643,86,7.751,1.3,7.557,102.0962,4.649,5.637,26.67,0,109.7,13.51,5.42,48.0
"2010-12-08 01:35:30",403692,4.471,93.6,6.642,1.167,9.65,102.0945,4.644,5.72,26.68,0,109.8,13.51,5.41,55.6
"2010-12-08 01:36:00",403693,4.151,98.1,6.515,1.281,8.99,102.0919,4.638,5.718,26.56,0,109.8,13.51,5.41,60.1
"2010-12-08 01:36:30",403694,4.14,97.5,6.816,1.294,8.25,102.0829,4.615,5.709,26.47,0,109.7,13.51,5.38,59.5
"2010-12-08 01:37:00",403695,3.372,91.9,6.209,1.138,5.955,102.0795,4.606,5.463,26.26,0,109.8,13.51,5.37,53.9
"2010-12-08 01:37:30",403696,3.497,94.1,7.092,1.126,6.502,102.0702,4.582,5.589,26.33,0,109.7,13.51,5.35,56.1
"2010-12-08 01:38:00",403697,3.793,99.9,7.839,1.308,6.674,102.0651,4.569,5.473,26.2,0,109.8,13.51,5.34,61.9
"2010-12-08 01:38:30",403698,3.896,98.4,5.831,1.316,7.996,102.0648,4.569,5.584,26.4,0,109.7,13.5,5.34,60.4
"2010-12-08 01:39:00",403699,4.144,104.1,6.526,1.233,8.87,102.0645,4.568,5.668,26.44,0,109.7,13.51,5.34,66.1
"2010-12-08 01:39:30",403700,4.51,102.8,5.753,1.177,8.99,102.0671,4.575,5.591,26.39,0,109.7,13.5,5.34,64.8
"2010-12-08 01:40:00",403701,3.522,99.3,7.276,1.142,7.326,102.0648,4.569,5.646,26.52,0,109.7,13.5,5.34,61.3
"2010-12-08 01:40:30",403702,3.087,96.5,5.182,0.941,5.415,102.0657,4.571,5.476,26.29,0,109.8,13.5,5.34,58.5
"2010-12-08 01:41:00",403703,2.804,94.7,2.601,0.124,4.862,102.0626,4.563,5.394,26.29,0,109.7,13.54,5.33,56.7
"2010-12-08 01:41:30",403704,3.982,98.4,6.545,1.128,7.407,102.0595,4.555,5.51,26.58,0,109.7,13.5,5.32,60.4
"2010-12-08 01:42:00",403705,4.309,102,9.47,1.095,8.95,102.0538,4.541,5.616,26.69,0,109.7,13.5,5.31,64.0
"2010-12-08 01:42:30",403706,4.402,101.7,5.618,1.099,9.27,102.0504,4.532,5.6,26.83,0,109.7,13.5,5.30,63.7
"2010-12-08 01:43:00",403707,3.598,103.3,6.002,1.276,8.22,102.0516,4.535,5.566,26.74,0,109.7,13.51,5.30,65.3
"2010-12-08 01:43:30",403708,2.487,91.7,2.551,0.482,5.07,102.0547,4.543,5.465,26.82,0,109.7,13.51,5.31,53.7
"2010-12-08 01:44:00",403709,3.572,96.3,8.63,1.269,6.975,102.0562,4.547,5.453,26.96,0,109.7,13.51,5.31,58.3
"2010-12-08 01:44:30",403710,2.219,84.5,2.86,0.167,5.064,102.0661,4.572,5.374,27.55,0,109.7,13.55,5.34,46.5
"2010-12-08 01:45:00",403711,3.294,89.1,7.646,1.301,8.36,102.0717,4.586,5.656,28.56,0,109.7,13.52,5.35,51.1
"2010-12-08 01:45:30",403712,4.226,95.9,6.383,1.108,9.55,102.098,4.654,5.675,28.65,0,109.7,13.52,5.42,57.9
"2010-12-08 01:46:00",403713,2.902,92.8,7.18,1.047,7.012,102.1043,4.669,5.528,27.72,0,109.7,13.52,5.44,54.8
"2010-12-08 01:46:30",403714,3.626,92.6,6.911,1.286,8.06,102.1043,4.669,5.718,28.25,0,109.7,13.52,5.44,54.6
"2010-12-08 01:47:00",403715,2.864,88.8,4.279,0.74,6.158,102.1045,4.67,5.678,28.3,0,109.7,13.52,5.44,50.8
"2010-12-08 01:47:30",403716,3.532,94.8,4.81,1.26,6.586,102.1088,4.681,5.508,27.92,0,109.7,13.52,5.45,56.8
"2010-12-08 01:48:00",403717,2.651,91.7,4.051,0.672,5.327,102.1102,4.685,5.5,27.48,0,109.7,13.52,5.45,53.7
"2010-12-08 01:48:30",403718,3.659,94.7,7.033,1.245,7.845,102.1048,4.671,5.727,27.63,0,109.7,13.52,5.44,56.7
"2010-12-08 01:49:00",403719,4.3,93.7,6.512,1.109,9.75,102.1045,4.67,5.742,27.46,0,109.7,13.52,5.44,55.7
"2010-12-08 01:49:30",403720,3.644,92.6,5.597,1.208,7.894,102.1045,4.67,5.568,26.87,0,109.7,13.52,5.44,54.6
"2010-12-08 01:50:00",403721,4.164,95.6,6.557,1.251,8.03,102.0966,4.65,5.681,26.79,0,109.7,13.52,5.42,57.6
"2010-12-08 01:50:30",403722,3.464,90.8,4.818,1.045,5.836,102.0825,4.614,5.554,26.63,0,109.7,13.52,5.38,52.8
"2010-12-08 01:51:00",403723,3.345,90,5.047,0.981,5.987,102.072,4.587,5.583,26.64,0,109.7,13.52,5.36,52.0